Regional Weather Roundup
Issued by NWS

Home | Current Version | Previous Version | Text Only | Print | Product List | Glossary Off
Versions: 1 2 3 4 5 6 7 8 9 10 11 12 13 14 15 16 17 18 19 20 21 22 23 24 25 26 27 28 29 30 31 32 33 34 35 36 37 38 39 40 41 42 43 44 45 46 47 48 49 50

000
ASUS45 KBOI 121410
RWRID
WEATHER ROUNDUP FOR IDAHO
NATIONAL WEATHER SERVICE BOISE ID
800 AM MDT SAT JUL 12 2014

NOTE: "FAIR" INDICATES FEW OR NO CLOUDS BELOW 12000 FEET
WITH NO SIGNIFICANT WEATHER AND/OR OBSTRUCTIONS TO VISIBILITY

IDZ012-014-121500-
SOUTHWEST IDAHO


CITY           SKY/WX    TMP DP  RH WIND       PRES   REMARKS
BOISE          MOSUNNY   77  40  26 W7        30.09R
CALDWELL       MOSUNNY   73  50  43 NW5       30.10R
$$

IDZ016-017-121500-
SOUTHCENTRAL IDAHO


CITY           SKY/WX    TMP DP  RH WIND       PRES   REMARKS
BURLEY         CLOUDY    67  58  72 CALM      30.17R
JEROME         PTSUNNY   70  53  54 E5        30.18R
TWIN FALLS     PTSUNNY   75  48  38 S6        30.17R
$$

IDZ019>023-121500-
SOUTHEAST IDAHO


CITY           SKY/WX    TMP DP  RH WIND       PRES   REMARKS
IDAHO FALLS    MOSUNNY   61  56  83 N7        30.24R
POCATELLO      SUNNY     73  51  46 CALM      30.21R
REXBURG        MOSUNNY   61  54  77 NE5       30.25R
$$

IDZ006-010-011-018-031-032-121500-
CENTRAL IDAHO MOUNTAINS


CITY           SKY/WX    TMP DP  RH WIND       PRES   REMARKS
MCCALL         CLOUDY    62  44  51 E3        30.22R
HAILEY         PTSUNNY   66  50  55 NW9       30.26R
STANLEY          N/A     59  41  51 CALM      30.34R
SALMON         MOSUNNY   63  52  67 CALM      30.20R
CHALLIS        PTSUNNY   67  34  29 CALM      30.25R
$$

IDZ002-004-006-007-026-121500-
NORTHERN IDAHO


CITY           SKY/WX    TMP DP  RH WIND       PRES   REMARKS
LEWISTON       PTSUNNY   67  48  50 CALM      30.08R
LOWELL           N/A     57  52  83 CALM      30.14R
COEUR D`ALENE  SUNNY     64  52  63 NE8       30.13R
MULLAN PASS    SUNNY     64  42  44 SE7       30.33R
$$



USA.gov is the U.S. government's official web portal to all federal, state and local government web resources and services.